Flag for U.S.A. Weather past 2 weeks in Davis, California, U.S.A.

Now
68 °F

Clear.


Feels Like: 68 °F
Forecast: 58 / 87 °F
Wind: 6 mph from South

Location: Sacramento International Airport

Current Time: Aug 29, 2015 at 11:36:16 PM

Latest Report: Aug 29, 2015 at 10:53 PM


Visibility: 10 mi

Pressure: 29.92 "Hg

Humidity: 53%

Dew point: 50 °F

Location of DavisLocation

Historic Weather in Davis — Graph

°F

Davis temperature yesterday

Maximum temperature yesterday: 101 °F (at 3:53 PM)
Minimum temperature yesterday: 65 °F (at 5:53 AM)
Average temperature yesterday: 82 °F

Past Weeks' High & Low Weather Summary

 TemperatureHumidityPressure
High104 °F (Aug 17, 4:53 PM)93% (Aug 15, 3:53 AM)30.01 "Hg (Aug 15, 3:53 AM)
Low57 °F (Aug 15, 3:53 AM)9% (Aug 17, 4:53 PM)29.72 "Hg (Aug 17, 6:53 PM)
Average76 °F51%29.86 "Hg
* Reported Aug 14 9:53 PM — Aug 29 9:53 PM, Davis, Weather by CustomWeather, © 2015

Note: Actual official high and low records may vary slightly from our data, if they occured in-between our weather recording intervals... More about our weather records

Advertising

Davis weather history for previous 24 hours

 ConditionsComfort  
Time TempWeatherWind HumidityBarometerVisibility
9:53 PM
Sat, Aug 29
68 °FClear.7 mph47%29.93 "Hg10 mi
8:53 PM72 °FClear.7 mph44%29.92 "Hg10 mi
7:53 PM77 °FPassing clouds.10 mph36%29.90 "Hg10 mi
6:53 PM82 °FPassing clouds.14 mph32%29.89 "Hg10 mi
5:53 PM86 °FPassing clouds.12 mph26%29.89 "Hg10 mi
4:53 PM86 °FScattered clouds.16 mph31%29.90 "Hg10 mi
3:53 PM85 °FScattered clouds.13 mph40%29.91 "Hg10 mi
2:53 PM83 °FScattered clouds.10 mph46%29.93 "Hg10 mi
1:53 PM83 °FScattered clouds.15 mph50%29.94 "Hg10 mi
12:53 PM82 °FScattered clouds.14 mph51%29.95 "Hg10 mi
11:53 AM79 °FScattered clouds.10 mph60%29.96 "Hg10 mi
10:53 AM76 °FScattered clouds.10 mph67%29.96 "Hg10 mi
9:53 AM72 °FPartly sunny.14 mph73%29.96 "Hg10 mi
8:53 AM71 °FBroken clouds.15 mph73%29.95 "Hg10 mi
7:53 AM68 °FBroken clouds.12 mph78%29.94 "Hg10 mi
6:53 AM67 °FPartly cloudy.10 mph81%29.92 "Hg10 mi
5:53 AM67 °FPartly cloudy.13 mph81%29.90 "Hg10 mi
4:53 AM68 °FPassing clouds.16 mph78%29.88 "Hg10 mi
3:53 AM68 °FPassing clouds.15 mph82%29.87 "Hg10 mi
2:53 AM68 °FPartly cloudy.13 mph82%29.86 "Hg10 mi
1:53 AM68 °FPartly cloudy.15 mph82%29.85 "Hg10 mi
11:53 PM
Fri, Aug 28
72 °FPassing clouds.13 mph68%29.83 "Hg10 mi
Weather by CustomWeather, © 2015

See weather overviewHow to use our weather pages